Weather History for Crestview, FL

Change the Weather History Date:

Sunday, January 27, 2013

  Actual Average Record
Temperature  
Mean Temperature 58 °F -  
Max Temperature 72 °F - - ()
Min Temperature 45 °F - - ()
Degree Days  
Heating Degree Days 6    
Growing Degree Days 8 (Base 50)    
Moisture  
Dew Point 49 °F    
Average Humidity 93    
Maximum Humidity 100    
Minimum Humidity 54    
Precipitation  
Precipitation 0.00 in - - ()
Sea Level Pressure  
Sea Level Pressure 30.28 in    
Wind  
Wind Speed 1 mph (ENE)    
Max Wind Speed 8 mph    
Max Gust Speed -    
Visibility 4 miles    
Events Fog    
T = Trace of Precipitation, MM = Missing Value Source: NWS Daily Summary

Daily Weather History Graph

Daily Weather History Graph

Search for Another Location

Airport:

Trip Planner

Search our weather history database for the weather conditions in past years. The results will help you decide how hot, cold, wet, or windy it might be!

Date:

Astronomy

Jan. 27, 2013 Rise Set
Actual Time 6:40 AM CST 5:18 PM CST
Civil Twilight 6:14 AM CST 5:43 PM CST
Nautical Twilight 5:45 AM CST 6:12 PM CST
Astronomical Twilight 5:16 AM CST 6:41 PM CST
Moon 6:04 PM CST (1/27) 6:38 AM CST (1/27)
Length of Visible Light 11h 29m
Length of Day
10h 38m
Full, 100% of the Moon is Illuminated
Jan 27
Full
Feb 3
Last Quarter
Feb 10
New
Feb 17
First Quarter
Feb 25
Full

Hourly Weather History & Observations

Time (CST) Temp. Windchill Dew Point Humidity Pressure Visibility Wind Dir Wind Speed Gust Speed Precip Events Conditions
12:00 AM 50.0 °F - 50.0 °F 100% 30.27 in 1.8 mi Calm Calm - N/A   Clear
12:02 AM 50.0 °F - 50.0 °F 100% 30.27 in 1.2 mi Calm Calm - N/A   Clear
12:03 AM 50.0 °F - 50.0 °F 100% 30.27 in 1.0 mi Calm Calm - N/A   Clear
12:05 AM 50.0 °F - 50.0 °F 100% 30.27 in 0.8 mi Calm Calm - N/A   Clear
12:09 AM 50.0 °F - 50.0 °F 100% 30.27 in 0.5 mi Calm Calm - N/A Fog Fog
12:13 AM 50.0 °F - 50.0 °F 100% 30.27 in 0.2 mi Calm Calm - N/A Fog Fog
12:22 AM 50.0 °F - 50.0 °F 100% 30.27 in 0.5 mi Calm Calm - N/A Fog Fog
12:27 AM 50.0 °F - 50.0 °F 100% 30.27 in 0.8 mi Calm Calm - N/A   Clear
12:35 AM 50.0 °F - 50.0 °F 100% 30.27 in 0.5 mi Calm Calm - N/A Fog Fog
12:55 AM 49.3 °F - 48.9 °F 99% 30.27 in 0.5 mi Calm Calm - N/A Fog Fog
1:06 AM 50.0 °F - 48.2 °F 94% 30.27 in 0.8 mi NNE 3.5 mph - N/A   Clear
1:08 AM 50.0 °F - 50.0 °F 100% 30.28 in 1.0 mi NE 3.5 mph - N/A   Clear
1:09 AM 50.0 °F - 50.0 °F 100% 30.28 in 1.2 mi NE 3.5 mph - N/A   Clear
1:10 AM 50.0 °F - 50.0 °F 100% 30.28 in 1.5 mi NNE 3.5 mph - N/A   Clear
1:11 AM 50.0 °F - 50.0 °F 100% 30.28 in 2.0 mi NE 3.5 mph - N/A   Clear
1:12 AM 50.0 °F - 50.0 °F 100% 30.28 in 3.0 mi NE 3.5 mph - N/A   Clear
1:36 AM 50.0 °F - 50.0 °F 100% 30.28 in 2.0 mi NNE 3.5 mph - N/A   Clear
1:37 AM 50.0 °F - 50.0 °F 100% 30.28 in 1.5 mi NNE 3.5 mph - N/A   Clear
1:38 AM 50.0 °F - 50.0 °F 100% 30.28 in 1.0 mi NNE 3.5 mph - N/A   Clear
1:39 AM 50.0 °F - 50.0 °F 100% 30.28 in 0.8 mi Calm Calm - N/A   Clear
1:41 AM 50.0 °F - 50.0 °F 100% 30.28 in 0.5 mi Calm Calm - N/A Fog Fog
1:45 AM 50.0 °F - 50.0 °F 100% 30.28 in 0.2 mi Calm Calm - N/A Fog Fog
1:50 AM 50.0 °F - 50.0 °F 100% 30.28 in 0.5 mi Calm Calm - N/A Fog Fog
1:55 AM 49.5 °F - 49.3 °F 99% 30.28 in 0.5 mi Calm Calm - N/A Fog Fog
2:07 AM 48.2 °F - 48.2 °F 100% 30.28 in 0.2 mi Calm Calm - N/A Fog Fog
2:19 AM 50.0 °F - 50.0 °F 100% 30.28 in 0.5 mi Calm Calm - N/A Fog Fog
2:36 AM 48.2 °F - 48.2 °F 100% 30.27 in 0.8 mi Calm Calm - N/A   Clear
2:40 AM 48.2 °F - 48.2 °F 100% 30.28 in 1.0 mi Calm Calm - N/A   Clear
2:42 AM 48.2 °F - 48.2 °F 100% 30.28 in 1.2 mi Calm Calm - N/A   Clear
2:43 AM 48.2 °F - 48.2 °F 100% 30.28 in 1.5 mi Calm Calm - N/A   Clear
2:45 AM 48.2 °F - 48.2 °F 100% 30.28 in 2.0 mi Calm Calm - N/A   Clear
2:46 AM 48.2 °F - 46.4 °F 93% 30.28 in 2.5 mi Calm Calm - N/A   Clear
2:47 AM 48.2 °F - 46.4 °F 93% 30.28 in 3.0 mi Calm Calm - N/A   Clear
2:55 AM 47.3 °F - 47.1 °F 99% 30.28 in 6.0 mi Calm Calm - N/A   Clear
3:10 AM 48.2 °F - 48.2 °F 100% 30.28 in 2.5 mi Calm Calm - N/A   Clear
3:12 AM 48.2 °F - 48.2 °F 100% 30.28 in 2.0 mi Calm Calm - N/A   Clear
3:18 AM 48.2 °F - 48.2 °F 100% 30.28 in 2.5 mi Calm Calm - N/A   Clear
3:20 AM 48.2 °F - 48.2 °F 100% 30.28 in 3.0 mi Calm Calm - N/A   Clear
3:22 AM 48.2 °F - 46.4 °F 93% 30.28 in 2.5 mi Calm Calm - N/A   Clear
3:23 AM 46.4 °F - 46.4 °F 100% 30.28 in 1.5 mi Calm Calm - N/A   Clear
3:24 AM 46.4 °F 45.2 °F 46.4 °F 100% 30.28 in 1.2 mi East 3.5 mph - N/A   Clear
3:25 AM 46.4 °F 45.2 °F 46.4 °F 100% 30.28 in 1.0 mi East 3.5 mph - N/A   Clear
3:27 AM 46.4 °F 45.2 °F 46.4 °F 100% 30.27 in 0.8 mi East 3.5 mph - N/A   Clear
3:32 AM 48.2 °F - 46.4 °F 93% 30.27 in 1.0 mi Calm Calm - N/A   Clear
3:34 AM 48.2 °F - 46.4 °F 93% 30.27 in 1.2 mi Calm Calm - N/A   Clear
3:35 AM 48.2 °F - 46.4 °F 93% 30.27 in 1.8 mi Calm Calm - N/A   Clear
3:36 AM 48.2 °F - 46.4 °F 93% 30.27 in 2.0 mi Calm Calm - N/A   Clear
3:37 AM 48.2 °F - 46.4 °F 93% 30.27 in 2.5 mi Calm Calm - N/A   Clear
3:38 AM 48.2 °F - 48.2 °F 100% 30.27 in 3.0 mi Calm Calm - N/A   Clear
3:49 AM 48.2 °F - 48.2 °F 100% 30.27 in 2.5 mi NE 3.5 mph - N/A   Clear
3:50 AM 48.2 °F - 46.4 °F 93% 30.27 in 2.0 mi Calm Calm - N/A   Clear
3:51 AM 46.4 °F - 46.4 °F 100% 30.27 in 1.5 mi Calm Calm - N/A   Clear
3:52 AM 46.4 °F - 46.4 °F 100% 30.27 in 1.2 mi Calm Calm - N/A   Clear
3:55 AM 46.8 °F - 46.4 °F 99% 30.27 in 1.0 mi Calm Calm - N/A   Clear
4:00 AM 46.4 °F - 46.4 °F 100% 30.27 in 1.0 mi Calm Calm - N/A   Clear
4:02 AM 46.4 °F - 46.4 °F 100% 30.28 in 1.2 mi Calm Calm - N/A   Clear
4:03 AM 46.4 °F - 46.4 °F 100% 30.27 in 1.5 mi Calm Calm - N/A   Clear
4:05 AM 46.4 °F - 46.4 °F 100% 30.28 in 2.0 mi Calm Calm - N/A   Clear
4:06 AM 46.4 °F - 46.4 °F 100% 30.28 in 1.8 mi Calm Calm - N/A   Clear
4:09 AM 46.4 °F - 46.4 °F 100% 30.27 in 1.2 mi Calm Calm - N/A   Clear
4:13 AM 48.2 °F - 48.2 °F 100% 30.27 in 1.5 mi Calm Calm - N/A   Clear
4:16 AM 48.2 °F - 48.2 °F 100% 30.27 in 2.0 mi Calm Calm - N/A   Clear
4:17 AM 48.2 °F - 48.2 °F 100% 30.27 in 3.0 mi Calm Calm - N/A   Clear
4:42 AM 46.4 °F - 46.4 °F 100% 30.27 in 2.0 mi Calm Calm - N/A   Clear
4:43 AM 46.4 °F - 46.4 °F 100% 30.27 in 1.5 mi Calm Calm - N/A   Clear
4:45 AM 48.2 °F - 46.4 °F 93% 30.27 in 1.2 mi Calm Calm - N/A   Clear
4:46 AM 48.2 °F - 46.4 °F 93% 30.27 in 1.0 mi Calm Calm - N/A   Clear
4:48 AM 46.4 °F - 46.4 °F 100% 30.27 in 0.8 mi Calm Calm - N/A   Clear
4:55 AM 46.4 °F - 46.4 °F 100% 30.27 in 1.2 mi Calm Calm - N/A   Clear
4:57 AM 46.4 °F - 46.4 °F 100% 30.27 in 1.8 mi Calm Calm - N/A   Clear
4:58 AM 46.4 °F - 46.4 °F 100% 30.27 in 2.0 mi Calm Calm - N/A   Clear
4:59 AM 46.4 °F - 46.4 °F 100% 30.27 in 3.0 mi Calm Calm - N/A   Clear
5:55 AM 45.0 °F 43.5 °F 44.8 °F 99% 30.29 in 10.0 mi NNE 3.5 mph - N/A   Clear
6:55 AM 46.9 °F - 46.6 °F 99% 30.30 in 10.0 mi NNE 3.5 mph - N/A   Clear
7:55 AM 49.5 °F - 45.5 °F 86% 30.32 in 10.0 mi ENE 4.6 mph - N/A   Clear
8:55 AM 56.3 °F - 43.9 °F 63% 30.33 in 10.0 mi ENE 3.5 mph - N/A   Clear
9:55 AM 64.0 °F - 47.3 °F 54% 30.34 in 10.0 mi Variable 3.5 mph - N/A   Clear
10:55 AM 68.2 °F - 51.3 °F 55% 30.33 in 10.0 mi Variable 4.6 mph - N/A   Clear
11:55 AM 70.0 °F - 53.1 °F 55% 30.30 in 10.0 mi Calm Calm - N/A   Clear
12:55 PM 72.1 °F - 54.5 °F 54% 30.27 in 10.0 mi South 5.8 mph - N/A   Scattered Clouds
1:55 PM 71.8 °F - 55.2 °F 56% 30.26 in 10.0 mi Variable 5.8 mph - N/A   Scattered Clouds
2:55 PM 70.9 °F - 55.2 °F 58% 30.27 in 10.0 mi South 8.1 mph - N/A   Mostly Cloudy
3:55 PM 70.0 °F - 54.9 °F 59% 30.27 in 10.0 mi South 4.6 mph - N/A   Partly Cloudy
4:55 PM 69.1 °F - 55.8 °F 62% 30.28 in 10.0 mi SW 4.6 mph - N/A   Overcast
5:55 PM 65.1 °F - 55.6 °F 71% 30.28 in 10.0 mi South 5.8 mph - N/A   Overcast
6:55 PM 61.7 °F - 54.9 °F 78% 30.30 in 10.0 mi SSE 3.5 mph - N/A   Mostly Cloudy
7:55 PM 61.2 °F - 55.2 °F 81% 30.30 in 10.0 mi SSE 3.5 mph - N/A   Overcast
8:55 PM 57.9 °F - 53.6 °F 86% 30.30 in 10.0 mi ESE 3.5 mph - N/A   Scattered Clouds
9:55 PM 57.2 °F - 53.8 °F 88% 30.29 in 10.0 mi Calm Calm - N/A   Mostly Cloudy
10:55 PM 55.0 °F - 53.2 °F 94% 30.28 in 10.0 mi Calm Calm - N/A   Scattered Clouds
11:30 PM 57.2 °F - 55.4 °F 94% 30.29 in 10.0 mi ENE 3.5 mph - N/A   Overcast
11:51 PM 57.2 °F - 55.4 °F 94% 30.29 in 10.0 mi East 3.5 mph - N/A   Mostly Cloudy
11:55 PM 57.6 °F - 55.0 °F 91% 30.29 in 10.0 mi Calm Calm - N/A   Mostly Cloudy
11:58 PM 57.2 °F - 55.4 °F 94% 30.29 in 10.0 mi East 3.5 mph - N/A   Scattered Clouds